When you browse on this site, cookies collect data to enhance your experience and personalize the content and advertising you see.
Visit our Privacy Policy to learn more. By continuing to use the site, you agree to this use of cookies and data.
  • în România
  • Lista ţărilor
  • Pe 7 zile
  • Temperatura apei
  • Hartă satelitară
  • Meteo pe hartă
  • Widget-uri
  • user-avatar
    Intrare

    Meteo pe oră la Ganja

    Astăzi, 16 Iunie, Duminică

    Timp Temperatura Precipitaţii Vânt Presiune Umiditate
    00:00 +25°C° 0 mm 3 m/s 724 mmHg 50%
    01:00 +24°C° 0 mm 2 m/s 724 mmHg 51%
    02:00 +24°C° 0 mm 2 m/s 724 mmHg 52%
    03:00 +23°C° 0 mm 1 m/s 724 mmHg 53%
    04:00 +24°C° 0 mm 1 m/s 724 mmHg 54%
    05:00 +24°C° 0 mm 1 m/s 724 mmHg 54%
    06:00 +25°C° 0 mm 1 m/s 723 mmHg 54%
    07:00 +26°C° 0 mm 1 m/s 723 mmHg 53%
    08:00 +27°C° 0 mm 1 m/s 723 mmHg 52%
    09:00 +28°C° 0 mm 2 m/s 723 mmHg 50%
    10:00 +29°C° 0 mm 2 m/s 723 mmHg 48%
    11:00 +30°C° 0 mm 1 m/s 722 mmHg 45%
    12:00 +31°C° 0 mm 1 m/s 722 mmHg 43%
    13:00 +32°C° 0.1 mm 1 m/s 721 mmHg 41%
    14:00 +32°C° 0.1 mm 1 m/s 721 mmHg 40%
    15:00 +33°C° 0.1 mm 1 m/s 721 mmHg 39%
    16:00 +33°C° 0 mm 1 m/s 721 mmHg 40%
    17:00 +33°C° 0 mm 1 m/s 721 mmHg 42%
    18:00 +32°C° 0 mm 1 m/s 721 mmHg 43%
    19:00 +31°C° 0 mm 1 m/s 721 mmHg 46%
    20:00 +30°C° 0 mm 1 m/s 721 mmHg 48%
    21:00 +28°C° 0 mm 2 m/s 722 mmHg 50%
    22:00 +28°C° 0 mm 2 m/s 722 mmHg 51%
    23:00 +27°C° 0 mm 2 m/s 722 mmHg 52%

    Mâine, 17 Iunie, Luni

    Timp Temperatura Precipitaţii Vânt Presiune Umiditate
    00:00 +27°C° 0 mm 2 m/s 722 mmHg 52%
    01:00 +26°C° 0 mm 2 m/s 722 mmHg 54%
    02:00 +25°C° 0 mm 2 m/s 721 mmHg 55%
    03:00 +25°C° 0 mm 2 m/s 721 mmHg 57%
    04:00 +25°C° 0 mm 2 m/s 721 mmHg 58%
    05:00 +25°C° 0 mm 2 m/s 721 mmHg 59%
    06:00 +26°C° 0 mm 2 m/s 721 mmHg 60%
    07:00 +27°C° 0 mm 2 m/s 721 mmHg 58%
    08:00 +28°C° 0 mm 2 m/s 721 mmHg 55%
    09:00 +29°C° 0 mm 2 m/s 721 mmHg 53%
    10:00 +30°C° 0.1 mm 2 m/s 721 mmHg 50%
    11:00 +31°C° 0.1 mm 2 m/s 721 mmHg 48%
    12:00 +32°C° 0.1 mm 2 m/s 721 mmHg 45%
    13:00 +34°C° 0.2 mm 2 m/s 720 mmHg 43%
    14:00 +34°C° 0.2 mm 1 m/s 720 mmHg 40%
    15:00 +34°C° 0.2 mm 1 m/s 720 mmHg 37%
    16:00 +35°C° 0 mm 2 m/s 720 mmHg 40%
    17:00 +34°C° 0 mm 2 m/s 720 mmHg 43%
    18:00 +34°C° 0 mm 3 m/s 720 mmHg 45%
    19:00 +31°C° 0.8 mm 3 m/s 721 mmHg 51%
    20:00 +29°C° 0.8 mm 4 m/s 722 mmHg 56%
    21:00 +27°C° 0.8 mm 4 m/s 722 mmHg 61%
    22:00 +26°C° 0.2 mm 4 m/s 722 mmHg 62%
    23:00 +26°C° 0.2 mm 3 m/s 722 mmHg 62%

    Poimâine, 18 Iunie, Marţi

    Timp Temperatura Precipitaţii Vânt Presiune Umiditate
    00:00 +25°C° 0.2 mm 2 m/s 722 mmHg 63%
    01:00 +25°C° 0.1 mm 2 m/s 722 mmHg 63%
    02:00 +24°C° 0.1 mm 2 m/s 722 mmHg 63%
    03:00 +24°C° 0.1 mm 1 m/s 722 mmHg 63%
    04:00 +24°C° 0 mm 1 m/s 722 mmHg 63%
    05:00 +25°C° 0 mm 1 m/s 722 mmHg 62%
    06:00 +25°C° 0 mm 1 m/s 722 mmHg 61%
    07:00 +26°C° 0.1 mm 1 m/s 722 mmHg 60%
    08:00 +27°C° 0.1 mm 2 m/s 722 mmHg 58%
    09:00 +28°C° 0.1 mm 2 m/s 722 mmHg 56%
    10:00 +29°C° 0 mm 2 m/s 722 mmHg 54%
    11:00 +30°C° 0 mm 2 m/s 722 mmHg 51%
    12:00 +31°C° 0 mm 2 m/s 722 mmHg 48%
    13:00 +32°C° 0.3 mm 2 m/s 721 mmHg 47%
    14:00 +32°C° 0.3 mm 2 m/s 721 mmHg 46%
    15:00 +34°C° 0.3 mm 2 m/s 720 mmHg 45%
    16:00 +32°C° 0.3 mm 2 m/s 721 mmHg 46%
    17:00 +32°C° 0.3 mm 2 m/s 721 mmHg 48%
    18:00 +31°C° 0.3 mm 2 m/s 721 mmHg 50%
    19:00 +30°C° 0.1 mm 2 m/s 721 mmHg 51%
    20:00 +29°C° 0.1 mm 2 m/s 722 mmHg 51%
    21:00 +28°C° 0.1 mm 3 m/s 722 mmHg 51%
    22:00 +28°C° 0.4 mm 3 m/s 722 mmHg 53%
    23:00 +27°C° 0.4 mm 3 m/s 723 mmHg 55%

    19 Iunie, Miercuri

    Timp Temperatura Precipitaţii Vânt Presiune Umiditate
    00:00 +26°C° 0.4 mm 4 m/s 723 mmHg 57%
    01:00 +25°C° 0.3 mm 3 m/s 722 mmHg 61%
    02:00 +25°C° 0.3 mm 2 m/s 722 mmHg 64%
    03:00 +24°C° 0.3 mm 1 m/s 722 mmHg 67%
    04:00 +24°C° 0 mm 1 m/s 722 mmHg 67%
    05:00 +24°C° 0 mm 2 m/s 722 mmHg 67%
    06:00 +25°C° 0 mm 2 m/s 722 mmHg 66%
    07:00 +26°C° 0 mm 2 m/s 722 mmHg 63%
    08:00 +27°C° 0 mm 2 m/s 722 mmHg 59%
    09:00 +28°C° 0 mm 3 m/s 722 mmHg 55%
    10:00 +30°C° 0.1 mm 3 m/s 722 mmHg 51%
    11:00 +31°C° 0.1 mm 3 m/s 722 mmHg 47%
    12:00 +33°C° 0.1 mm 3 m/s 722 mmHg 42%
    13:00 +33°C° 0.1 mm 3 m/s 722 mmHg 39%
    14:00 +34°C° 0.1 mm 4 m/s 721 mmHg 36%
    15:00 +35°C° 0.1 mm 4 m/s 721 mmHg 33%
    16:00 +34°C° 0.1 mm 4 m/s 721 mmHg 36%
    17:00 +34°C° 0.1 mm 4 m/s 721 mmHg 39%
    18:00 +33°C° 0.1 mm 4 m/s 721 mmHg 41%
    19:00 +32°C° 0 mm 4 m/s 722 mmHg 42%
    20:00 +29°C° 0 mm 5 m/s 722 mmHg 42%
    21:00 +28°C° 0 mm 5 m/s 722 mmHg 43%
    22:00 +27°C° 0 mm 5 m/s 722 mmHg 43%
    23:00 +27°C° 0 mm 4 m/s 722 mmHg 43%

    20 Iunie, Joi

    Timp Temperatura Precipitaţii Vânt Presiune Umiditate
    00:00 +26°C° 0 mm 4 m/s 722 mmHg 44%
    01:00 +26°C° 0 mm 3 m/s 722 mmHg 45%
    02:00 +25°C° 0 mm 3 m/s 722 mmHg 46%
    03:00 +25°C° 0 mm 3 m/s 722 mmHg 47%
    04:00 +25°C° 0 mm 2 m/s 722 mmHg 49%
    05:00 +25°C° 0 mm 2 m/s 722 mmHg 50%
    06:00 +26°C° 0 mm 2 m/s 722 mmHg 51%
    07:00 +27°C° 0 mm 2 m/s 722 mmHg 48%
    08:00 +28°C° 0 mm 3 m/s 722 mmHg 45%
    09:00 +30°C° 0 mm 3 m/s 722 mmHg 42%
    10:00 +32°C° 0 mm 4 m/s 722 mmHg 39%
    11:00 +33°C° 0 mm 5 m/s 722 mmHg 36%
    12:00 +34°C° 0 mm 6 m/s 722 mmHg 33%
    13:00 +34°C° 0 mm 6 m/s 721 mmHg 32%
    14:00 +35°C° 0 mm 7 m/s 721 mmHg 32%
    15:00 +35°C° 0 mm 7 m/s 720 mmHg 31%
    16:00 +34°C° 0.1 mm 7 m/s 721 mmHg 34%
    17:00 +34°C° 0.1 mm 6 m/s 721 mmHg 37%
    18:00 +33°C° 0.1 mm 6 m/s 721 mmHg 40%
    19:00 +32°C° 0.1 mm 6 m/s 721 mmHg 41%
    20:00 +29°C° 0.1 mm 6 m/s 722 mmHg 42%
    21:00 +28°C° 0.1 mm 6 m/s 722 mmHg 42%
    22:00 +28°C° 0.1 mm 5 m/s 722 mmHg 44%
    23:00 +27°C° 0.1 mm 4 m/s 722 mmHg 45%

    21 Iunie, Vineri

    Timp Temperatura Precipitaţii Vânt Presiune Umiditate
    00:00 +27°C° 0.1 mm 3 m/s 722 mmHg 46%
    01:00 +26°C° 0.2 mm 3 m/s 722 mmHg 49%
    02:00 +25°C° 0.2 mm 3 m/s 722 mmHg 51%
    03:00 +24°C° 0.2 mm 3 m/s 722 mmHg 54%
    04:00 +24°C° 0.3 mm 3 m/s 722 mmHg 57%
    05:00 +24°C° 0.3 mm 3 m/s 722 mmHg 60%
    06:00 +24°C° 0.3 mm 3 m/s 722 mmHg 63%
    07:00 +25°C° 0.1 mm 3 m/s 723 mmHg 58%
    08:00 +27°C° 0.1 mm 3 m/s 723 mmHg 53%
    09:00 +28°C° 0.1 mm 3 m/s 723 mmHg 48%
    10:00 +28°C° 0 mm 5 m/s 723 mmHg 45%
    11:00 +29°C° 0 mm 6 m/s 723 mmHg 43%
    12:00 +29°C° 0 mm 7 m/s 724 mmHg 41%
    13:00 +29°C° 0 mm 6 m/s 724 mmHg 41%
    14:00 +30°C° 0 mm 5 m/s 723 mmHg 41%
    15:00 +30°C° 0 mm 5 m/s 723 mmHg 41%
    16:00 +29°C° 0.1 mm 4 m/s 723 mmHg 42%
    17:00 +29°C° 0.1 mm 3 m/s 723 mmHg 43%
    18:00 +29°C° 0.1 mm 2 m/s 723 mmHg 44%
    19:00 +28°C° 0 mm 2 m/s 724 mmHg 47%
    20:00 +26°C° 0 mm 2 m/s 724 mmHg 50%
    21:00 +25°C° 0 mm 1 m/s 724 mmHg 53%
    22:00 +25°C° 0 mm 1 m/s 724 mmHg 54%
    23:00 +24°C° 0 mm 1 m/s 724 mmHg 56%
    Arată mai mult